Location: Buena Vista
(37.7110°N, 119.7938°W)
Time: 22:19:30
(UTC+00:00)

Hubble Space Telescope - Pass Details

Date: 20 August 2024
Orbit: 505 x 509 km, 28.5° (Epoch: 16 September)

Event Time Altitude Azimuth Distance (km) Brightness Sun altitude
Exits shadow 11:56:07 16° 184° (S) 1,387 2.5 -16.0°
Drops below altitude 10° 11:58:07 10° 153° (SSE) 1,708 3.3 -15.7°
Sets 12:01:00 0° 132° (SE) 2,592 4.5 -15.2°
